DW4338 Bergen NO current weather conditions

sailwx.info

Wind from 138 at 8 knots gusting 15

Air temperature 1.1° C
Dewpoint 0.3° C

Last reported at 2018-Feb-18 20:09 UTC.
Time now 2018-Feb-18 20:36 UTC

Location: N 60°31' E 004°54'.
View on Google Maps.

See reports from other nearby stations

  
Tides and Currents Weather Stations Pressure Air Temp Water Temp Dewpoint Dewpoint Depression Visibility Wind Speed Wind Dir Waves Ship Positions
date/time (UTC)wind fromknots sea level pressurealtimeterstation pressurevisibilityair tempwater tempwave heightnotes
2018-Feb-18 20:09 138 8 gusting 15 1.1
2018-Feb-18 19:54 134 4 gusting 13 1.1
2018-Feb-18 19:39 134 4 gusting 8 1.1
2018-Feb-18 19:24 134 6 gusting 11 1.1
2018-Feb-18 19:09 130 6 gusting 9 1.7
2018-Feb-18 18:54 130 1.7
2018-Feb-18 18:39 127 7 gusting 15 1.7
2018-Feb-18 18:24 111 1 gusting 13 1.7
2018-Feb-18 18:09 070 6 gusting 13 1.7
2018-Feb-18 17:53 164 1.7
2018-Feb-18 17:38 163 6 gusting 16 1.7
2018-Feb-18 17:24 153 8 gusting 13 1.7
2018-Feb-18 17:08 154 6 gusting 13 1.7
2018-Feb-18 16:53 152 6 gusting 19 1.7
2018-Feb-18 16:38 161 10 gusting 16 1.7
2018-Feb-18 16:24 153 8 gusting 17 2.2
2018-Feb-18 16:08 157 7 gusting 13 2.2
2018-Feb-18 15:53 161 8 gusting 13 2.2
2018-Feb-18 15:38 169 7 gusting 16 2.2
2018-Feb-18 15:23 169 6 gusting 12 2.2
2018-Feb-18 15:08 169 5 gusting 11 2.8
2018-Feb-18 14:53 169 6 gusting 16 2.8
2018-Feb-18 14:38 220 2.8
2018-Feb-18 14:23 194 3 gusting 17 2.8
2018-Feb-18 14:08 158 6 gusting 13 2.8
2018-Feb-18 13:56 160 6 gusting 19 3.3
2018-Feb-18 13:38 202 6 gusting 16 3.3
2018-Feb-18 13:23 206 3 gusting 19 3.3
2018-Feb-18 13:08 176 8 gusting 20 3.3
2018-Feb-18 12:53 184 3 gusting 11 2.8
2018-Feb-18 12:38 177 0 gusting 12 2.8
2018-Feb-18 12:23 171 0 gusting 16 2.2
2018-Feb-18 12:09 171 11 gusting 22 2.2
2018-Feb-18 11:53 215 9 gusting 23 2.8
2018-Feb-18 11:38 198 2.8
2018-Feb-18 11:23 223 4 gusting 17 2.2
2018-Feb-18 11:08 227 17 gusting 33 2.8
2018-Feb-18 10:53 154 6 gusting 20 2.8
2018-Feb-18 10:38 219 5 gusting 18 3.3
2018-Feb-18 10:23 200 1 gusting 23 2.8
2018-Feb-18 10:08 172 6 gusting 19 2.2
2018-Feb-18 09:53 164 6 gusting 22 2.2
2018-Feb-18 09:38 187 2.2
2018-Feb-18 09:23 187 1.7
2018-Feb-18 09:08 187 4 gusting 13 1.7
2018-Feb-18 08:53 316 1.7
2018-Feb-18 08:38 233 2 gusting 19 2.2
2018-Feb-18 08:23 182 16 gusting 31 2.2
2018-Feb-18 08:08 186 14 gusting 27 2.2
2018-Feb-18 07:53 174 17 gusting 33 2.2
2018-Feb-18 07:38 150 13 gusting 26 2.2
2018-Feb-18 07:23 167 16 gusting 30 2.2
2018-Feb-18 07:08 197 11 gusting 25 1.7
2018-Feb-18 06:53 167 12 gusting 27 1.7
2018-Feb-18 06:38 170 13 gusting 27 1.7
2018-Feb-18 06:23 163 13 gusting 24 1.7
2018-Feb-18 06:08 175 11 gusting 26 1.7
2018-Feb-18 05:53 165 12 gusting 26 1.7
2018-Feb-18 05:38 178 12 gusting 26 1.7
2018-Feb-18 05:23 206 11 gusting 24 1.7
2018-Feb-18 05:08 175 10 gusting 27 1.7
2018-Feb-18 04:53 157 15 gusting 25 1.7
2018-Feb-18 04:38 187 8 gusting 34 1.7
2018-Feb-18 04:23 157 10 gusting 26 1.7
2018-Feb-18 04:08 135 13 gusting 30 1.7
2018-Feb-18 03:53 136 16 gusting 38 1.7
2018-Feb-18 03:38 178 19 gusting 39 1.7
2018-Feb-18 03:23 138 20 gusting 35 1.1
2018-Feb-18 03:08 157 19 gusting 33 1.1
2018-Feb-18 02:53 149 21 gusting 42 1.1
2018-Feb-18 02:37 180 21 gusting 43 1.1
2018-Feb-18 02:22 192 17 gusting 50 1.1
2018-Feb-18 02:07 146 19 gusting 49 1.1
2018-Feb-18 01:52 229 10 gusting 36 1.7
2018-Feb-18 01:37 182 12 gusting 49 1.7
2018-Feb-18 01:22 209 13 gusting 44 1.7
2018-Feb-18 01:07 176 14 gusting 38 1.7
2018-Feb-18 00:52 169 19 gusting 42 1.7
2018-Feb-18 00:37 173 17 gusting 46 1.7
2018-Feb-18 00:22 146 23 gusting 48 1.7
2018-Feb-18 00:07 173 20 gusting 59 1.7
2018-Feb-17 23:52 243 13 gusting 39 2.2
2018-Feb-17 23:37 155 17 gusting 46 2.2
2018-Feb-17 23:22 175 22 gusting 40 1.7
2018-Feb-17 23:07 165 25 gusting 46 1.7
2018-Feb-17 22:52 165 19 gusting 52 1.1
2018-Feb-17 22:37 182 14 gusting 39 1.1
2018-Feb-17 22:22 183 19 gusting 42 1.7
2018-Feb-17 22:07 152 28 gusting 61 2.2
2018-Feb-17 21:52 150 22 gusting 43 2.2
2018-Feb-17 21:37 125 20 gusting 45 2.2
2018-Feb-17 21:22 139 19 gusting 44 1.7
2018-Feb-17 21:07 163 30 gusting 49 2.2
2018-Feb-17 20:52 205 19 gusting 65 2.2
2018-Feb-17 20:37 263 25 gusting 50 2.8
2018-Feb-17 20:22 155 19 gusting 42 2.8
2018-Feb-17 20:07 144 15 gusting 60 3.3
2018-Feb-17 19:52 218 21 gusting 50 3.3
2018-Feb-17 19:37 214 25 gusting 65 3.9
2018-Feb-17 19:22 163 26 gusting 51 3.9
2018-Feb-17 19:07 140 30 gusting 56 3.9
2018-Feb-17 18:52 161 25 gusting 54 3.9
2018-Feb-17 18:37 170 25 gusting 53 3.9
2018-Feb-17 18:22 173 22 gusting 53 3.9
2018-Feb-17 18:07 163 26 gusting 55 3.9
2018-Feb-17 17:52 142 26 gusting 54 3.9
2018-Feb-17 17:37 146 24 gusting 42 3.9
2018-Feb-17 17:22 134 23 gusting 44 3.9
2018-Feb-17 17:07 167 26 gusting 53 3.9
2018-Feb-17 16:52 144 24 gusting 57 3.9
2018-Feb-17 16:37 165 20 gusting 53 3.9
2018-Feb-17 16:22 184 22 gusting 54 3.9
2018-Feb-17 16:07 142 24 gusting 56 3.9
2018-Feb-17 15:52 147 26 gusting 56 3.9
2018-Feb-17 15:37 157 20 gusting 43 4.4
2018-Feb-17 15:22 148 20 gusting 49 4.4
2018-Feb-17 15:06 178 25 gusting 55 4.4
2018-Feb-17 14:51 150 22 gusting 53 4.4
2018-Feb-17 14:36 171 24 gusting 47 4.4
2018-Feb-17 14:21 206 21 gusting 47 4.4
2018-Feb-17 14:06 146 22 gusting 53 4.4
2018-Feb-17 13:51 183 17 gusting 43 4.4
2018-Feb-17 13:36 167 22 gusting 53 4.4
2018-Feb-17 13:21 132 22 gusting 45 4.4
2018-Feb-17 13:06 176 15 gusting 41 4.4
2018-Feb-17 12:51 146 26 gusting 45 4.4
2018-Feb-17 12:36 146 23 gusting 45 4.4
2018-Feb-17 12:21 142 18 gusting 47 4.4
2018-Feb-17 12:07 146 26 gusting 53 4.4
2018-Feb-17 11:51 177 26 gusting 50 4.4
2018-Feb-17 11:36 163 26 gusting 57 4.4
2018-Feb-17 11:21 155 24 gusting 43 4.4
2018-Feb-17 11:06 143 25 gusting 47 4.4
2018-Feb-17 10:51 144 24 gusting 40 3.9
2018-Feb-17 10:36 142 26 gusting 51 3.9
2018-Feb-17 10:21 140 25 gusting 53 3.3
2018-Feb-17 10:06 165 23 gusting 52 3.3
2018-Feb-17 09:51 145 26 gusting 43 3.3
2018-Feb-17 09:36 132 25 gusting 47 3.3
2018-Feb-17 09:21 151 27 gusting 45 3.3
2018-Feb-17 09:06 137 27 gusting 53 2.8
2018-Feb-17 08:51 132 25 gusting 43 2.8
2018-Feb-17 08:36 142 20 gusting 46 2.8
2018-Feb-17 08:21 142 23 gusting 44 2.8
2018-Feb-17 08:06 142 20 gusting 42 2.8
2018-Feb-17 07:51 163 19 gusting 39 2.2
2018-Feb-17 07:36 143 20 gusting 44 2.2
2018-Feb-17 07:21 145 20 gusting 43 2.2
2018-Feb-17 07:06 160 20 gusting 39 2.8
2018-Feb-17 06:51 151 19 gusting 37 2.2
2018-Feb-17 06:36 153 21 gusting 46 2.2
2018-Feb-17 06:21 140 16 gusting 33 2.2
2018-Feb-17 06:06 142 17 gusting 39 2.2
2018-Feb-17 05:51 138 23 gusting 46 2.2
2018-Feb-17 05:36 136 26 gusting 42 2.2
2018-Feb-17 05:21 130 19 gusting 36 2.2
2018-Feb-17 05:06 145 17 gusting 39 2.2
2018-Feb-17 04:51 143 14 gusting 30 2.2
2018-Feb-17 04:36 151 15 gusting 28 1.7
2018-Feb-17 04:21 141 16 gusting 30 1.7
2018-Feb-17 04:05 153 13 gusting 32 1.7
2018-Feb-17 03:50 142 17 gusting 32 1.7
2018-Feb-17 03:35 147 19 gusting 36 1.7
2018-Feb-17 03:21 177 17 gusting 31 2.2
2018-Feb-17 03:05 141 19 gusting 33 2.2
2018-Feb-17 02:50 153 15 gusting 29 2.2
2018-Feb-17 02:35 171 13 gusting 33 2.2
2018-Feb-17 02:20 178 13 gusting 27 1.7
2018-Feb-17 02:05 165 11 gusting 24 1.7
2018-Feb-17 01:50 165 15 gusting 25 2.2
2018-Feb-17 01:35 207 10 gusting 26 1.7
2018-Feb-17 01:20 159 17 gusting 27 1.7
2018-Feb-17 01:05 137 17 gusting 35 1.7
2018-Feb-17 00:50 148 14 gusting 29 1.7
2018-Feb-17 00:35 180 12 gusting 25 1.7
2018-Feb-17 00:20 158 13 gusting 27 1.7
2018-Feb-17 00:05 151 13 gusting 25 1.7
2018-Feb-16 23:50 169 11 gusting 29 1.7
2018-Feb-16 23:35 153 13 gusting 26 1.7
2018-Feb-16 23:20 169 2 gusting 30 1.7
2018-Feb-16 23:05 150 15 gusting 29 1.7
2018-Feb-16 22:50 167 10 gusting 25 1.7
2018-Feb-16 22:35 158 12 gusting 27 1.7
2018-Feb-16 22:20 167 9 gusting 27 1.7
2018-Feb-16 22:05 182 11 gusting 27 2.2
2018-Feb-16 21:50 152 13 gusting 24 2.2
2018-Feb-16 21:35 140 10 gusting 25 2.2
2018-Feb-16 21:20 149 11 gusting 27 2.2
2018-Feb-16 21:05 173 10 gusting 22 2.2
2018-Feb-16 20:50 152 10 gusting 26 2.2
2018-Feb-16 20:35 166 10 gusting 20 1.7
2018-Feb-16 20:20 156 9 gusting 20 1.7
2018-Feb-16 20:05 148 12 gusting 23 1.7